Location: Shenandoah County Park
(38.9356°N, 78.4524°W)
Time: 15:34:30
(UTC-04:00)

CAS-4B - Pass Details

Date: 24 April 2024
Orbit: 476 x 492 km, 43.0° (Epoch: 20 May)

Event Time Altitude Azimuth Distance (km) Brightness Sun altitude
Exits shadow 04:48:07 20° 300° (WNW) 1,176 ? -17.6°
Maximum altitude 04:50:26 45° 5° (N) 676 ? -17.2°
Drops below altitude 10° 04:54:06 10° 79° (E) 1,676 ? -16.6°
Sets 04:56:22 0° 86° (E) 2,562 ? -16.3°
